• In Denmark
  • List of Countries
  • For 7 days
  • Water Temperature
  • Satellite Maps
  • Weather Map
  • Weather Widgets
  • user-avatar
    Login

    Hourly Weather Batan

    Today, 21 August, Tuesday

    Time Temperature Precipitation Wind Pressure Humidity
    00:00 +26°C° 0 mm 3 mps 695 mmHg 52%
    01:00 +25°C° 0 mm 3 mps 695 mmHg 57%
    02:00 +24°C° 0 mm 2 mps 696 mmHg 62%
    03:00 +23°C° 0.2 mm 2 mps 696 mmHg 67%
    04:00 +23°C° 0.2 mm 2 mps 696 mmHg 71%
    05:00 +21°C° 0 mm 3 mps 697 mmHg 76%
    06:00 +21°C° 0.7 mm 2 mps 697 mmHg 78%
    07:00 +21°C° 0.7 mm 2 mps 697 mmHg 79%
    08:00 +22°C° 0.7 mm 1 mps 697 mmHg 80%
    09:00 +23°C° 0.2 mm 2 mps 697 mmHg 75%
    10:00 +24°C° 0.2 mm 2 mps 697 mmHg 70%
    11:00 +25°C° 0 mm 2 mps 698 mmHg 69%
    12:00 +25°C° 0.4 mm 2 mps 698 mmHg 67%
    13:00 +25°C° 0.4 mm 2 mps 698 mmHg 66%
    14:00 +25°C° 0.4 mm 2 mps 697 mmHg 64%
    15:00 +25°C° 0.4 mm 2 mps 697 mmHg 64%
    16:00 +25°C° 0.4 mm 2 mps 697 mmHg 64%
    17:00 +24°C° 0 mm 2 mps 698 mmHg 64%
    18:00 +24°C° 0.1 mm 1 mps 698 mmHg 66%
    19:00 +23°C° 0.1 mm 1 mps 699 mmHg 68%
    20:00 +22°C° 0.1 mm 1 mps 699 mmHg 69%
    21:00 +22°C° 0.1 mm 1 mps 699 mmHg 71%
    22:00 +21°C° 0.1 mm 1 mps 699 mmHg 72%
    23:00 +21°C° 0.1 mm 1 mps 698 mmHg 74%

    Tomorrow, 22 August, Wednesday

    Time Temperature Precipitation Wind Pressure Humidity
    00:00 +20°C° 0 mm 1 mps 698 mmHg 74%
    01:00 +20°C° 0 mm 1 mps 698 mmHg 74%
    02:00 +20°C° 0 mm 1 mps 698 mmHg 75%
    03:00 +19°C° 0 mm 1 mps 698 mmHg 74%
    04:00 +19°C° 0 mm 1 mps 697 mmHg 74%
    05:00 +18°C° 0 mm 1 mps 697 mmHg 73%
    06:00 +20°C° 0 mm 1 mps 698 mmHg 68%
    07:00 +21°C° 0 mm 1 mps 698 mmHg 63%
    08:00 +23°C° 0 mm 1 mps 698 mmHg 57%
    09:00 +24°C° 0.1 mm 2 mps 698 mmHg 56%
    10:00 +24°C° 0.1 mm 2 mps 698 mmHg 54%
    11:00 +25°C° 0.1 mm 2 mps 698 mmHg 53%
    12:00 +26°C° 0.2 mm 2 mps 698 mmHg 52%
    13:00 +26°C° 0.2 mm 2 mps 697 mmHg 51%
    14:00 +27°C° 0.2 mm 2 mps 697 mmHg 50%
    15:00 +26°C° 0.1 mm 2 mps 697 mmHg 51%
    16:00 +26°C° 0.1 mm 2 mps 697 mmHg 51%
    17:00 +26°C° 0.1 mm 2 mps 697 mmHg 51%
    18:00 +24°C° 0 mm 2 mps 697 mmHg 55%
    19:00 +23°C° 0 mm 2 mps 697 mmHg 58%
    20:00 +21°C° 0 mm 1 mps 698 mmHg 62%
    21:00 +21°C° 0 mm 1 mps 698 mmHg 62%
    22:00 +20°C° 0 mm 1 mps 697 mmHg 63%
    23:00 +20°C° 0 mm 1 mps 697 mmHg 63%

    Day after tomorrow, 23 August, Thursday

    Time Temperature Precipitation Wind Pressure Humidity
    00:00 +20°C° 0 mm 1 mps 697 mmHg 63%
    01:00 +19°C° 0 mm 1 mps 697 mmHg 63%
    02:00 +19°C° 0 mm 1 mps 697 mmHg 63%
    03:00 +19°C° 0 mm 1 mps 696 mmHg 63%
    04:00 +18°C° 0 mm 1 mps 696 mmHg 63%
    05:00 +18°C° 0 mm 1 mps 696 mmHg 63%
    06:00 +20°C° 0 mm 1 mps 696 mmHg 58%
    07:00 +22°C° 0 mm 1 mps 697 mmHg 54%
    08:00 +24°C° 0 mm 1 mps 697 mmHg 49%
    09:00 +25°C° 0 mm 1 mps 697 mmHg 46%
    10:00 +26°C° 0 mm 2 mps 697 mmHg 44%
    11:00 +27°C° 0 mm 3 mps 696 mmHg 42%
    12:00 +28°C° 0.1 mm 3 mps 696 mmHg 41%
    13:00 +28°C° 0.1 mm 3 mps 696 mmHg 40%
    14:00 +29°C° 0.1 mm 3 mps 695 mmHg 39%
    15:00 +29°C° 0.1 mm 3 mps 695 mmHg 40%
    16:00 +28°C° 0.1 mm 3 mps 695 mmHg 41%
    17:00 +28°C° 0.1 mm 3 mps 695 mmHg 42%
    18:00 +26°C° 0 mm 2 mps 695 mmHg 46%
    19:00 +24°C° 0 mm 2 mps 695 mmHg 51%
    20:00 +21°C° 0 mm 2 mps 695 mmHg 55%
    21:00 +21°C° 0 mm 2 mps 695 mmHg 55%
    22:00 +20°C° 0 mm 2 mps 695 mmHg 56%
    23:00 +20°C° 0 mm 2 mps 695 mmHg 56%

    24 August, Friday

    Time Temperature Precipitation Wind Pressure Humidity
    00:00 +20°C° 0 mm 2 mps 694 mmHg 57%
    01:00 +19°C° 0 mm 2 mps 694 mmHg 57%
    02:00 +19°C° 0 mm 2 mps 694 mmHg 58%
    03:00 +19°C° 0 mm 2 mps 694 mmHg 57%
    04:00 +19°C° 0 mm 2 mps 694 mmHg 57%
    05:00 +19°C° 0 mm 2 mps 694 mmHg 57%
    06:00 +21°C° 0 mm 1 mps 694 mmHg 53%
    07:00 +23°C° 0 mm 1 mps 694 mmHg 50%
    08:00 +25°C° 0 mm 1 mps 694 mmHg 46%
    09:00 +26°C° 0.2 mm 1 mps 694 mmHg 44%
    10:00 +27°C° 0.2 mm 1 mps 694 mmHg 43%
    11:00 +28°C° 0.2 mm 1 mps 694 mmHg 42%
    12:00 +29°C° 0.4 mm 2 mps 694 mmHg 42%
    13:00 +29°C° 0.4 mm 2 mps 694 mmHg 42%
    14:00 +30°C° 0.4 mm 2 mps 694 mmHg 41%
    15:00 +29°C° 0.5 mm 3 mps 694 mmHg 43%
    16:00 +29°C° 0.5 mm 3 mps 694 mmHg 44%
    17:00 +28°C° 0.5 mm 4 mps 694 mmHg 46%
    18:00 +27°C° 0.7 mm 4 mps 694 mmHg 49%
    19:00 +26°C° 0.7 mm 4 mps 695 mmHg 53%
    20:00 +25°C° 0.7 mm 5 mps 695 mmHg 56%
    21:00 +23°C° 1 mm 4 mps 695 mmHg 57%
    22:00 +23°C° 1 mm 4 mps 695 mmHg 57%
    23:00 +23°C° 1 mm 4 mps 695 mmHg 58%

    25 August, Saturday

    Time Temperature Precipitation Wind Pressure Humidity
    00:00 +22°C° 0.5 mm 4 mps 695 mmHg 57%
    01:00 +21°C° 0.5 mm 3 mps 695 mmHg 57%
    02:00 +21°C° 0.5 mm 3 mps 695 mmHg 57%
    03:00 +21°C° 0 mm 3 mps 694 mmHg 56%
    04:00 +20°C° 0 mm 3 mps 694 mmHg 56%
    05:00 +20°C° 0 mm 3 mps 694 mmHg 56%
    06:00 +21°C° 0 mm 2 mps 695 mmHg 52%
    07:00 +24°C° 0 mm 1 mps 695 mmHg 48%
    08:00 +26°C° 0 mm 1 mps 695 mmHg 43%
    09:00 +27°C° 0 mm 1 mps 695 mmHg 41%
    10:00 +28°C° 0 mm 1 mps 695 mmHg 39%
    11:00 +29°C° 0 mm 1 mps 695 mmHg 37%
    12:00 +29°C° 0 mm 1 mps 694 mmHg 37%
    13:00 +30°C° 0 mm 2 mps 694 mmHg 36%
    14:00 +30°C° 0 mm 2 mps 693 mmHg 36%
    15:00 +30°C° 0.2 mm 2 mps 693 mmHg 38%
    16:00 +29°C° 0.2 mm 2 mps 693 mmHg 39%
    17:00 +29°C° 0.2 mm 3 mps 693 mmHg 41%
    18:00 +27°C° 0.2 mm 2 mps 693 mmHg 45%
    19:00 +25°C° 0.2 mm 2 mps 693 mmHg 48%
    20:00 +23°C° 0.2 mm 2 mps 693 mmHg 52%
    21:00 +23°C° 0 mm 2 mps 693 mmHg 52%
    22:00 +21°C° 0 mm 2 mps 692 mmHg 52%
    23:00 +21°C° 0 mm 2 mps 692 mmHg 52%

    26 August, Sunday

    Time Temperature Precipitation Wind Pressure Humidity
    00:00 +20°C° 0 mm 2 mps 692 mmHg 52%
    01:00 +20°C° 0 mm 2 mps 692 mmHg 52%
    02:00 +19°C° 0 mm 2 mps 691 mmHg 52%
    03:00 +19°C° 0 mm 2 mps 691 mmHg 52%
    04:00 +19°C° 0 mm 2 mps 691 mmHg 52%
    05:00 +18°C° 0 mm 2 mps 691 mmHg 51%
    06:00 +20°C° 0 mm 2 mps 692 mmHg 48%
    07:00 +21°C° 0 mm 2 mps 692 mmHg 45%
    08:00 +24°C° 0 mm 2 mps 692 mmHg 43%
    09:00 +24°C° 0 mm 2 mps 692 mmHg 42%
    10:00 +25°C° 0 mm 3 mps 692 mmHg 41%
    11:00 +25°C° 0 mm 3 mps 692 mmHg 40%
    12:00 +26°C° 0 mm 3 mps 692 mmHg 40%
    13:00 +26°C° 0 mm 3 mps 693 mmHg 40%
    14:00 +26°C° 0 mm 3 mps 693 mmHg 40%
    15:00 +26°C° 0.1 mm 3 mps 693 mmHg 42%
    16:00 +25°C° 0.1 mm 2 mps 693 mmHg 43%
    17:00 +25°C° 0.1 mm 2 mps 694 mmHg 44%
    18:00 +23°C° 0.1 mm 1 mps 694 mmHg 47%
    19:00 +21°C° 0.1 mm 1 mps 695 mmHg 50%
    20:00 +20°C° 0.1 mm 1 mps 695 mmHg 53%
    21:00 +19°C° 0 mm 1 mps 695 mmHg 55%
    22:00 +19°C° 0 mm 1 mps 695 mmHg 56%
    23:00 +18°C° 0 mm 1 mps 695 mmHg 57%
    Show more